Flag for Azerbaijan Weather past 2 weeks in Ganja, Azerbaijan

Now
50 °F

Passing clouds.


Feels Like: 47 °F
Forecast: 34 / 53 °F
Wind: 8 mph from Southwest

Location: Gyanca Airport

Current Time: Dec 25, 2014 at 6:27:01 PM

Latest Report: Dec 25, 2014 at 6:00 PM


Visibility: N/A

Pressure: 30.18 "Hg

Humidity: 62%

Dew point: 37 °F

Location of GanjaLocation

Historic Weather in Ganja — Graph

°F

Ganja temperature yesterday

Maximum temperature yesterday: 52 °F (at 1:30 PM)
Minimum temperature yesterday: 36 °F (at 2:00 AM)
Average temperature yesterday: 44 °F

Past Weeks' High & Low Weather Summary

 TemperatureHumidityPressure
High61 °F (Dec 11, 1:30 PM)100% (Dec 10, 9:00 PM)30.42 "Hg (Dec 10, 9:00 PM)
Low32 °F (Dec 21, 7:00 AM)38% (Dec 22, 3:30 PM)29.83 "Hg (Dec 22, 2:30 PM)
Average43 °F82%30.16 "Hg
* Reported Dec 10 5:00 PM — Dec 25 5:30 PM, Ganja, Weather by CustomWeather, © 2014

Note: Actual official high and low records may vary slightly from our data, if they occured in-between our weather recording intervals... More about our weather records

Advertising

Ganja weather history for previous 24 hours

 ConditionsComfort  
Time TempWeatherWind HumidityBarometerVisibility
5:30 PM
Dec 25
50 °FPassing clouds.7 mph62%30.18 "HgN/A
5:00 PM55 °FPassing clouds.3 mph51%30.18 "HgN/A
4:30 PM57 °FPassing clouds.6 mph44%30.18 "HgN/A
4:00 PM57 °FPassing clouds.5 mph41%30.18 "HgN/A
3:30 PM57 °FPassing clouds.5 mph41%30.18 "HgN/A
3:00 PM57 °FPassing clouds.2 mph41%30.18 "HgN/A
2:30 PM57 °FPassing clouds.3 mph41%30.18 "HgN/A
2:00 PM57 °FPassing clouds.1 mph41%30.21 "HgN/A
1:30 PM57 °FPassing clouds.1 mph41%30.21 "HgN/A
1:00 PM55 °FPassing clouds.3 mph44%30.21 "HgN/A
12:30 PM59 °FPassing clouds.3 mph42%30.24 "HgN/A
12:00 PM55 °FPassing clouds.5 mph44%30.24 "HgN/A
11:30 AM55 °FPassing clouds.5 mph44%30.24 "HgN/A
11:00 AM54 °FPassing clouds.6 mph47%30.24 "HgN/A
10:30 AM52 °FPassing clouds.6 mph54%30.24 "HgN/A
10:00 AM48 °FPassing clouds.6 mph62%30.24 "HgN/A
9:30 AM45 °FScattered clouds.8 mph66%30.24 "HgN/A
9:00 AM43 °FPassing clouds.10 mph71%30.24 "HgN/A
8:30 AM43 °FPassing clouds.9 mph71%30.21 "HgN/A
7:30 AM43 °FPassing clouds.12 mph71%30.18 "HgN/A
7:00 AM43 °FPassing clouds.10 mph71%30.18 "HgN/A
6:30 AM45 °FPassing clouds.10 mph66%30.18 "HgN/A
6:00 AM43 °FPassing clouds.9 mph71%30.18 "HgN/A
5:30 AM45 °FPassing clouds.10 mph66%30.18 "HgN/A
5:00 AM45 °FPassing clouds.15 mph66%30.15 "HgN/A
4:30 AM45 °FPassing clouds.15 mph66%30.15 "HgN/A
4:00 AM45 °FPassing clouds.17 mph66%30.15 "HgN/A
3:30 AM45 °FPassing clouds.17 mph66%30.15 "HgN/A
3:00 AM46 °FPassing clouds.18 mph62%30.12 "HgN/A
2:30 AM46 °FPassing clouds.20 mph62%30.12 "HgN/A
2:00 AM46 °FPassing clouds.18 mph62%30.12 "HgN/A
1:30 AM45 °FPassing clouds.17 mph66%30.12 "HgN/A
1:00 AM45 °FPassing clouds.18 mph66%30.09 "HgN/A
12:30 AM45 °FPassing clouds.16 mph66%30.09 "HgN/A
12:00 AM45 °FPassing clouds.13 mph66%30.09 "HgN/A
11:30 PM
Dec 24
46 °FPassing clouds.13 mph57%30.09 "HgN/A
11:00 PM45 °FPassing clouds.2 mph61%30.09 "HgN/A
10:30 PM45 °FPassing clouds.8 mph66%30.09 "HgN/A
10:00 PM45 °FPassing clouds.7 mph66%30.09 "HgN/A
9:30 PM46 °FPassing clouds.12 mph62%30.07 "HgN/A
9:00 PM46 °FPassing clouds.14 mph62%30.07 "HgN/A
8:30 PM45 °FPassing clouds.13 mph66%30.07 "HgN/A
8:00 PM46 °FPassing clouds.8 mph57%30.07 "HgN/A
7:30 PM46 °FPassing clouds.7 mph62%30.07 "HgN/A
7:00 PM46 °FPassing clouds.10 mph57%30.07 "HgN/A
6:30 PM48 °FPartly sunny.14 mph54%30.04 "HgN/A
6:00 PM46 °FPartly sunny.13 mph57%30.04 "HgN/A
Weather by CustomWeather, © 2014

See weather overviewHow to use our weather pages